M I D A S
Marine Information and Data Acquisition System
Tripno 966 of the Zeeleeuw from 2005-10-04 06:33:46 to 2005-10-04 17:37:35
Back to CruiseResearch ActivitiesStationsMapUnderway DataData graphs

EquipmentUnitsComments
TimeDGPSUTC
LatitudeDGPSDM.mWGS84
LongitudeDGPSDM.mWGS84
SpeedMeteo Stationm/sRelative wind speed
DirectionMeteo StationdegRelative wind direction
TemperatureMeteo Stationdeg CelciusAir temperature
PressureMeteo StationPaAtmospheric pressure
HumidityMeteo Station%Relative humidity
Missing or incorrect values are displayed as -999
Metereological data collected by the RV Zeeleeuw from 2005-10-04 06:35:46 to 2005-10-04 17:46:46
                                                                                    Next 1000 lines
Time Latitude Longitude Speed Direction Temperature Pressure Humidity
2005-10-04 06:35:56 51°13.601 2°56.094 -999 298 12.3 102910 86
2005-10-04 06:36:01 51°13.602 2°56.091 -999 259 12.3 102910 86
2005-10-04 06:36:06 51°13.603 2°56.086 -999 227 12.4 102910 86
2005-10-04 06:36:12 51°13.604 2°56.08 -999 295 12.4 102910 86
2005-10-04 06:36:16 51°13.605 2°56.076 -999 293 12.3 102920 86
2005-10-04 06:36:20 51°13.606 2°56.072 -999 265 12.3 102920 86
2005-10-04 06:36:26 51°13.608 2°56.065 -999 278 12.4 102910 86
2005-10-04 06:36:31 51°13.609 2°56.059 -999 259 12.4 102910 86
2005-10-04 06:36:36 51°13.611 2°56.052 -999 230 12.4 102920 86
2005-10-04 06:36:40 51°13.613 2°56.046 -999 234 12.4 102920 86
2005-10-04 06:36:46 51°13.615 2°56.037 -999 241 12.4 102920 86
2005-10-04 06:36:52 51°13.617 2°56.028 -999 275 12.4 102920 86
2005-10-04 06:36:56 51°13.618 2°56.022 -999 239 12.4 102920 86
2005-10-04 06:37:00 51°13.62 2°56.015 -999 252 12.4 102920 86
2005-10-04 06:37:06 51°13.622 2°56.006 -999 281 12.4 102920 86
2005-10-04 06:37:11 51°13.624 2°55.998 -999 253 12.4 102920 86
2005-10-04 06:37:16 51°13.626 2°55.99 -999 242 12.4 102920 86
2005-10-04 06:37:20 51°13.628 2°55.983 -999 242 12.4 102920 86
2005-10-04 06:37:26 51°13.631 2°55.973 -999 254 12.4 102920 86
2005-10-04 06:37:31 51°13.633 2°55.965 -999 232 12.4 102920 86
2005-10-04 06:37:36 51°13.636 2°55.956 -999 267 12.4 102910 86
2005-10-04 06:37:42 51°13.64 2°55.946 -999 226 12.4 102910 86
2005-10-04 06:37:46 51°13.642 2°55.939 -999 214 12.4 102920 86
2005-10-04 06:37:51 51°13.646 2°55.931 -999 236 12.4 102920 86
2005-10-04 06:37:56 51°13.649 2°55.923 -999 247 12.4 102920 86
2005-10-04 06:38:01 51°13.653 2°55.914 -999 241 12.4 102920 86
2005-10-04 06:38:06 51°13.657 2°55.906 -999 232 12.4 102920 86
2005-10-04 06:38:11 51°13.66 2°55.898 -999 236 12.4 102920 86
2005-10-04 06:38:16 51°13.664 2°55.89 -999 248 12.4 102920 86
2005-10-04 06:38:22 51°13.669 2°55.881 -999 214 12.4 102920 86
2005-10-04 06:38:26 51°13.672 2°55.874 -999 226 12.4 102920 86
2005-10-04 06:38:31 51°13.677 2°55.866 -999 214 12.4 102920 86
2005-10-04 06:38:36 51°13.681 2°55.858 -999 211 12.4 102910 86
2005-10-04 06:38:41 51°13.685 2°55.85 -999 231 12.4 102910 86
2005-10-04 06:38:46 51°13.689 2°55.842 -999 236 12.4 102910 86
2005-10-04 06:38:52 51°13.695 2°55.831 -999 244 12.4 102910 86
2005-10-04 06:38:56 51°13.698 2°55.825 -999 246 12.4 102920 86
2005-10-04 06:39:01 51°13.703 2°55.816 -999 242 12.4 102920 86
2005-10-04 06:39:06 51°13.708 2°55.807 -999 238 12.4 102920 86
2005-10-04 06:39:12 51°13.714 2°55.797 -999 214 12.4 102920 86
2005-10-04 06:39:16 51°13.718 2°55.79 -999 214 12.5 102920 86
2005-10-04 06:39:21 51°13.723 2°55.781 -999 236 12.5 102920 86
2005-10-04 06:39:26 51°13.728 2°55.772 -999 237 12.5 102920 86
2005-10-04 06:39:32 51°13.735 2°55.761 -999 217 12.5 102920 86
2005-10-04 06:39:36 51°13.739 2°55.754 -999 230 12.5 102920 86
2005-10-04 06:39:40 51°13.744 2°55.747 -999 222 12.5 102920 86
2005-10-04 06:39:46 51°13.751 2°55.737 -999 232 12.5 102910 86
2005-10-04 06:39:51 51°13.757 2°55.729 -999 216 12.5 102910 86
2005-10-04 06:39:56 51°13.763 2°55.721 -999 215 12.5 102910 86
2005-10-04 06:40:02 51°13.77 2°55.712 -999 222 12.5 102910 86
2005-10-04 06:40:06 51°13.776 2°55.705 -999 213 12.5 102920 86
2005-10-04 06:40:12 51°13.784 2°55.696 -999 208 12.5 102920 86
2005-10-04 06:40:16 51°13.789 2°55.69 -999 214 12.5 102920 86
2005-10-04 06:40:22 51°13.797 2°55.682 -999 207 12.5 102920 86
2005-10-04 06:40:26 51°13.802 2°55.676 -999 199 12.5 102920 86
2005-10-04 06:40:31 51°13.809 2°55.67 -999 242 12.5 102920 86
2005-10-04 06:40:36 51°13.815 2°55.664 -999 247 12.6 102920 86
2005-10-04 06:40:40 51°13.821 2°55.659 -999 219 12.6 102920 86
2005-10-04 06:40:46 51°13.829 2°55.652 -999 219 12.6 102920 86
2005-10-04 06:40:51 51°13.836 2°55.647 -999 220 12.6 102920 86
2005-10-04 06:40:56 51°13.843 2°55.643 -999 219 12.6 102920 85
2005-10-04 06:41:01 51°13.85 2°55.639 -999 224 12.6 102920 85
2005-10-04 06:41:06 51°13.857 2°55.636 -999 221 12.7 102920 85
2005-10-04 06:41:11 51°13.864 2°55.632 -999 232 12.7 102920 85
2005-10-04 06:41:16 51°13.871 2°55.63 -999 224 12.7 102920 85
2005-10-04 06:41:21 51°13.878 2°55.628 -999 221 12.7 102920 85
2005-10-04 06:41:26 51°13.886 2°55.626 -999 218 12.7 102920 85
2005-10-04 06:41:32 51°13.894 2°55.625 -999 221 12.7 102920 85
2005-10-04 06:41:36 51°13.9 2°55.625 -999 225 12.7 102920 85
2005-10-04 06:41:40 51°13.905 2°55.625 -999 218 12.7 102920 85
2005-10-04 06:41:46 51°13.913 2°55.625 -999 220 12.8 102920 85
2005-10-04 06:41:51 51°13.919 2°55.626 -999 221 12.8 102920 85
2005-10-04 06:41:56 51°13.925 2°55.627 -999 212 12.8 102920 85
2005-10-04 06:42:01 51°13.931 2°55.629 -999 209 12.8 102920 85
2005-10-04 06:42:06 51°13.936 2°55.631 -999 226 12.8 102910 84
2005-10-04 06:42:11 51°13.941 2°55.633 -999 208 12.8 102910 84
2005-10-04 06:42:16 51°13.946 2°55.635 -999 209 12.8 102920 84
2005-10-04 06:42:21 51°13.95 2°55.637 -999 194 12.8 102920 84
2005-10-04 06:42:26 51°13.954 2°55.639 -999 215 12.8 102920 84
2005-10-04 06:42:31 51°13.958 2°55.642 -999 215 12.8 102920 84
2005-10-04 06:42:36 51°13.961 2°55.643 -999 213 12.9 102910 84
2005-10-04 06:42:40 51°13.962 2°55.644 -999 217 12.9 102910 84
2005-10-04 06:42:46 51°13.964 2°55.644 -999 194 12.9 102920 84
2005-10-04 06:42:51 51°13.964 2°55.643 -999 185 12.9 102920 84
2005-10-04 06:42:56 51°13.964 2°55.642 -999 182 12.9 102920 84
2005-10-04 06:43:00 51°13.963 2°55.639 -999 150 12.9 102920 84
2005-10-04 06:43:06 51°13.963 2°55.634 -999 147 12.9 102920 84
2005-10-04 06:43:11 51°13.962 2°55.629 -999 148 12.9 102920 84
2005-10-04 06:43:16 51°13.962 2°55.622 -999 131 12.9 102920 84
2005-10-04 06:43:20 51°13.962 2°55.616 -999 140 12.9 102920 84
2005-10-04 06:43:26 51°13.964 2°55.606 -999 134 13 102920 84
2005-10-04 06:43:31 51°13.967 2°55.597 -999 90 13 102920 84
2005-10-04 06:43:36 51°13.97 2°55.589 -999 99 13 102910 84
2005-10-04 06:43:40 51°13.974 2°55.582 -999 59 13 102910 84
2005-10-04 06:43:46 51°13.98 2°55.572 -999 102 13 102920 83
2005-10-04 06:43:51 51°13.987 2°55.563 -999 62 13 102920 83
2005-10-04 06:43:56 51°13.993 2°55.554 -999 74 13 102920 83
2005-10-04 06:44:00 51°13.999 2°55.546 -999 83 13 102920 83
2005-10-04 06:44:06 51°14.008 2°55.534 -999 76 13 102920 83
2005-10-04 06:44:11 51°14.017 2°55.524 -999 49 13 102920 83
2005-10-04 06:44:16 51°14.025 2°55.515 -999 49 13.1 102910 83
2005-10-04 06:44:20 51°14.033 2°55.507 -999 45 13.1 102910 83
2005-10-04 06:44:26 51°14.044 2°55.496 -999 61 13.1 102910 82
2005-10-04 06:44:31 51°14.054 2°55.486 -999 38 13.1 102910 82
2005-10-04 06:44:36 51°14.064 2°55.477 -999 49 13.1 102920 82
2005-10-04 06:44:40 51°14.073 2°55.469 -999 59 13.1 102920 82
2005-10-04 06:44:46 51°14.085 2°55.457 -999 48 13.1 102910 82
2005-10-04 06:44:51 51°14.096 2°55.447 -999 56 13.1 102910 82
2005-10-04 06:44:56 51°14.107 2°55.437 -999 59 13.1 102910 82
2005-10-04 06:45:00 51°14.116 2°55.428 -999 47 13.1 102910 82
2005-10-04 06:45:06 51°14.129 2°55.416 -999 52 13.1 102910 82
2005-10-04 06:45:11 51°14.141 2°55.405 -999 49 13.1 102910 82
2005-10-04 06:45:16 51°14.152 2°55.394 -999 39 13.1 102910 82
2005-10-04 06:45:21 51°14.163 2°55.382 -999 56 13.1 102910 82
2005-10-04 06:45:26 51°14.175 2°55.371 -999 40 13.1 102910 82
2005-10-04 06:45:31 51°14.186 2°55.359 -999 52 13.1 102910 82
2005-10-04 06:45:36 51°14.197 2°55.346 -999 54 13.1 102910 82
2005-10-04 06:45:40 51°14.207 2°55.336 -999 57 13.1 102910 82
2005-10-04 06:45:46 51°14.22 2°55.319 -999 65 13.1 102900 82
2005-10-04 06:45:51 51°14.231 2°55.305 -999 72 13.1 102900 82
2005-10-04 06:45:56 51°14.241 2°55.29 -999 65 13.1 102910 82
2005-10-04 06:46:00 51°14.249 2°55.277 -999 51 13.1 102910 82
2005-10-04 06:46:06 51°14.261 2°55.258 -999 47 13 102910 82
2005-10-04 06:46:11 51°14.271 2°55.24 -999 54 13 102910 82
2005-10-04 06:46:16 51°14.28 2°55.223 -999 46 13 102910 82
2005-10-04 06:46:20 51°14.287 2°55.208 -999 43 13 102910 82
2005-10-04 06:46:26 51°14.299 2°55.185 -999 49 13 102910 83
2005-10-04 06:46:31 51°14.308 2°55.167 -999 68 13 102910 83
2005-10-04 06:46:36 51°14.317 2°55.147 -999 50 13 102900 83
2005-10-04 06:46:40 51°14.325 2°55.132 -999 37 13 102900 83
2005-10-04 06:46:46 51°14.335 2°55.108 -999 29 13 102910 84
2005-10-04 06:46:51 51°14.344 2°55.089 -999 67 13 102910 84
2005-10-04 06:46:56 51°14.353 2°55.069 -999 37 13 102910 84
2005-10-04 06:47:01 51°14.362 2°55.049 -999 57 13 102910 84
2005-10-04 06:47:06 51°14.372 2°55.028 -999 74 13.1 102910 85
2005-10-04 06:47:11 51°14.381 2°55.006 -999 65 13.1 102910 85
2005-10-04 06:47:16 51°14.391 2°54.984 -999 72 13.1 102900 85
2005-10-04 06:47:20 51°14.398 2°54.967 -999 76 13.1 102900 85
2005-10-04 06:47:26 51°14.41 2°54.939 -999 74 13.1 102910 86
2005-10-04 06:47:31 51°14.419 2°54.916 -999 71 13.1 102910 86
2005-10-04 06:47:36 51°14.43 2°54.893 -999 73 13.2 102900 86
2005-10-04 06:47:40 51°14.438 2°54.875 -999 71 13.2 102900 86
2005-10-04 06:47:46 51°14.452 2°54.848 -999 68 13.2 102900 86
2005-10-04 06:47:51 51°14.463 2°54.826 -999 64 13.2 102900 86
2005-10-04 06:47:56 51°14.475 2°54.804 -999 60 13.2 102900 86
2005-10-04 06:48:00 51°14.484 2°54.786 -999 60 13.2 102900 86
2005-10-04 06:48:06 51°14.498 2°54.759 -999 65 13.2 102900 86
2005-10-04 06:48:11 51°14.51 2°54.738 -999 65 13.2 102900 86
2005-10-04 06:48:16 51°14.523 2°54.716 -999 58 13.3 102900 87
2005-10-04 06:48:20 51°14.532 2°54.699 -999 62 13.3 102900 87
2005-10-04 06:48:26 51°14.548 2°54.675 -999 62 13.3 102900 87
2005-10-04 06:48:31 51°14.56 2°54.654 -999 61 13.3 102900 87
2005-10-04 06:48:36 51°14.573 2°54.634 -999 61 13.3 102890 87
2005-10-04 06:48:41 51°14.586 2°54.613 -999 64 13.3 102890 87
2005-10-04 06:48:46 51°14.599 2°54.593 -999 61 13.4 102890 86
2005-10-04 06:48:51 51°14.612 2°54.572 -999 59 13.4 102890 86
2005-10-04 06:48:56 51°14.625 2°54.554 -999 56 13.4 102890 85
2005-10-04 06:49:00 51°14.635 2°54.538 -999 58 13.4 102890 85
2005-10-04 06:49:06 51°14.652 2°54.516 -999 58 13.4 102890 85
2005-10-04 06:49:11 51°14.666 2°54.498 -999 53 13.4 102890 85
2005-10-04 06:49:16 51°14.68 2°54.481 -999 53 13.4 102890 84
2005-10-04 06:49:21 51°14.694 2°54.465 -999 58 13.4 102890 84
2005-10-04 06:49:26 51°14.708 2°54.448 -999 58 13.5 102880 84
2005-10-04 06:49:31 51°14.723 2°54.432 -999 56 13.5 102880 84
2005-10-04 06:49:36 51°14.737 2°54.415 -999 59 13.5 102890 84
2005-10-04 06:49:40 51°14.749 2°54.403 -999 60 13.5 102890 84
2005-10-04 06:49:46 51°14.766 2°54.384 -999 59 13.6 102890 84
2005-10-04 06:49:51 51°14.781 2°54.369 -999 61 13.6 102890 84
2005-10-04 06:49:56 51°14.795 2°54.353 -999 56 13.6 102880 84
2005-10-04 06:50:01 51°14.81 2°54.337 -999 52 13.6 102880 84
2005-10-04 06:50:06 51°14.824 2°54.321 -999 58 13.6 102880 83
2005-10-04 06:50:11 51°14.839 2°54.306 -999 54 13.6 102880 83
2005-10-04 06:50:16 51°14.853 2°54.291 -999 58 13.7 102890 83
2005-10-04 06:50:20 51°14.865 2°54.279 -999 64 13.7 102890 83
2005-10-04 06:50:26 51°14.883 2°54.261 -999 60 13.7 102890 83
2005-10-04 06:50:31 51°14.897 2°54.246 -999 56 13.7 102890 83
2005-10-04 06:50:36 51°14.912 2°54.231 -999 58 13.8 102880 83
2005-10-04 06:50:41 51°14.926 2°54.216 -999 56 13.8 102880 83
2005-10-04 06:50:46 51°14.94 2°54.201 -999 60 13.8 102880 83
2005-10-04 06:50:51 51°14.954 2°54.186 -999 56 13.8 102880 83
2005-10-04 06:50:56 51°14.968 2°54.17 -999 60 13.8 102890 82
2005-10-04 06:51:00 51°14.98 2°54.158 -999 55 13.8 102890 82
2005-10-04 06:51:06 51°14.996 2°54.139 -999 54 13.8 102890 82
2005-10-04 06:51:11 51°15.01 2°54.123 -999 52 13.8 102890 82
2005-10-04 06:51:16 51°15.024 2°54.109 -999 58 13.8 102890 82
2005-10-04 06:51:21 51°15.038 2°54.093 -999 60 13.8 102890 82
2005-10-04 06:51:26 51°15.052 2°54.078 -999 58 13.8 102880 81
2005-10-04 06:51:31 51°15.066 2°54.061 -999 63 13.8 102880 81
2005-10-04 06:51:36 51°15.08 2°54.045 -999 62 13.8 102890 81
2005-10-04 06:51:40 51°15.091 2°54.032 -999 57 13.8 102890 81
2005-10-04 06:51:46 51°15.108 2°54.015 -999 51 13.8 102890 81
2005-10-04 06:51:51 51°15.123 2°54.001 -999 53 13.8 102890 81
2005-10-04 06:51:56 51°15.137 2°53.987 -999 52 13.9 102880 80
2005-10-04 06:52:00 51°15.149 2°53.976 -999 54 13.9 102880 80
2005-10-04 06:52:06 51°15.167 2°53.959 -999 55 13.9 102890 80
2005-10-04 06:52:11 51°15.181 2°53.945 -999 53 13.9 102890 80
2005-10-04 06:52:16 51°15.196 2°53.931 -999 53 13.9 102890 80
2005-10-04 06:52:20 51°15.207 2°53.918 -999 51 13.9 102890 80
2005-10-04 06:52:26 51°15.225 2°53.901 -999 52 13.9 102890 80
2005-10-04 06:52:31 51°15.24 2°53.886 -999 54 13.9 102890 80
2005-10-04 06:52:36 51°15.255 2°53.871 -999 53 13.9 102890 80
2005-10-04 06:52:40 51°15.267 2°53.859 -999 54 13.9 102890 80
2005-10-04 06:52:46 51°15.285 2°53.842 -999 57 14 102890 81
2005-10-04 06:52:51 51°15.3 2°53.826 -999 48 14 102890 81
2005-10-04 06:52:56 51°15.315 2°53.812 -999 50 13.9 102890 81
2005-10-04 06:53:00 51°15.327 2°53.801 -999 48 13.9 102890 81
2005-10-04 06:53:06 51°15.345 2°53.784 -999 52 13.9 102880 80
2005-10-04 06:53:11 51°15.361 2°53.769 -999 51 13.9 102880 80
2005-10-04 06:53:16 51°15.376 2°53.754 -999 54 14 102890 80
2005-10-04 06:53:21 51°15.391 2°53.74 -999 53 14 102890 80
2005-10-04 06:53:26 51°15.406 2°53.726 -999 53 13.9 102890 79
2005-10-04 06:53:31 51°15.421 2°53.711 -999 54 13.9 102890 79
2005-10-04 06:53:36 51°15.436 2°53.696 -999 46 13.9 102880 79
2005-10-04 06:53:40 51°15.448 2°53.684 -999 53 13.9 102880 79
2005-10-04 06:53:46 51°15.466 2°53.667 -999 54 13.9 102890 79
2005-10-04 06:53:51 51°15.482 2°53.652 -999 53 13.9 102890 79
2005-10-04 06:53:56 51°15.497 2°53.637 -999 55 14 102880 80
2005-10-04 06:54:01 51°15.512 2°53.622 -999 58 14 102880 80
2005-10-04 06:54:06 51°15.527 2°53.608 -999 57 14 102890 80
2005-10-04 06:54:11 51°15.542 2°53.592 -999 52 14 102890 80
2005-10-04 06:54:16 51°15.557 2°53.577 -999 49 14 102880 80
2005-10-04 06:54:21 51°15.572 2°53.562 -999 53 14 102880 80
2005-10-04 06:54:26 51°15.587 2°53.547 -999 56 14 102880 80
2005-10-04 06:54:31 51°15.602 2°53.532 -999 55 14 102880 80
2005-10-04 06:54:36 51°15.617 2°53.518 -999 59 14 102880 81
2005-10-04 06:54:40 51°15.629 2°53.505 -999 56 14 102880 81
2005-10-04 06:54:46 51°15.647 2°53.487 -999 58 14 102880 80
2005-10-04 06:54:51 51°15.662 2°53.472 -999 55 14 102880 80
2005-10-04 06:54:56 51°15.677 2°53.458 -999 57 14 102880 79
2005-10-04 06:55:01 51°15.692 2°53.442 -999 54 14 102880 79
2005-10-04 06:55:06 51°15.707 2°53.427 -999 56 14 102880 79
2005-10-04 06:55:11 51°15.722 2°53.412 -999 53 14 102880 79
2005-10-04 06:55:16 51°15.737 2°53.399 -999 57 14 102890 79
2005-10-04 06:55:21 51°15.753 2°53.385 -999 54 14 102890 79
2005-10-04 06:55:26 51°15.768 2°53.37 -999 53 14 102880 79
2005-10-04 06:55:31 51°15.782 2°53.355 -999 60 14 102880 79
2005-10-04 06:55:36 51°15.797 2°53.339 -999 58 14 102890 79
2005-10-04 06:55:41 51°15.812 2°53.324 -999 53 14 102890 79
2005-10-04 06:55:46 51°15.827 2°53.31 -999 55 14 102880 79
2005-10-04 06:55:51 51°15.843 2°53.297 -999 58 14 102880 79
2005-10-04 06:55:56 51°15.858 2°53.283 -999 58 14 102880 79
2005-10-04 06:56:00 51°15.87 2°53.272 -999 60 14 102880 79
2005-10-04 06:56:06 51°15.888 2°53.255 -999 60 14 102880 79
2005-10-04 06:56:11 51°15.903 2°53.24 -999 62 14 102880 79
2005-10-04 06:56:16 51°15.918 2°53.225 -999 55 14 102880 79
2005-10-04 06:56:21 51°15.933 2°53.21 -999 56 14 102880 79
2005-10-04 06:56:26 51°15.948 2°53.196 -999 53 14 102890 79
2005-10-04 06:56:31 51°15.963 2°53.181 -999 55 14 102890 79
2005-10-04 06:56:36 51°15.979 2°53.168 -999 53 14.1 102880 79
2005-10-04 06:56:40 51°15.991 2°53.158 -999 52 14.1 102880 79
2005-10-04 06:56:46 51°16.01 2°53.144 -999 55 14.1 102880 80
2005-10-04 06:56:51 51°16.026 2°53.132 -999 56 14.1 102880 80
2005-10-04 06:56:56 51°16.041 2°53.121 -999 54 14.1 102880 80
2005-10-04 06:57:00 51°16.054 2°53.11 -999 57 14.1 102880 80
2005-10-04 06:57:06 51°16.072 2°53.095 -999 57 14.1 102880 79
2005-10-04 06:57:11 51°16.088 2°53.082 -999 49 14.1 102880 79
2005-10-04 06:57:16 51°16.104 2°53.071 -999 51 14 102870 79
2005-10-04 06:57:20 51°16.116 2°53.06 -999 55 14 102870 79
2005-10-04 06:57:26 51°16.135 2°53.046 -999 55 14.1 102880 79
2005-10-04 06:57:31 51°16.15 2°53.034 -999 57 14.1 102880 79
2005-10-04 06:57:36 51°16.166 2°53.022 -999 56 14.1 102880 80
2005-10-04 06:57:40 51°16.178 2°53.011 -999 58 14.1 102880 80
2005-10-04 06:57:46 51°16.196 2°52.996 -999 56 14.1 102880 79
2005-10-04 06:57:51 51°16.212 2°52.983 -999 54 14.1 102880 79
2005-10-04 06:57:56 51°16.227 2°52.97 -999 56 14.1 102880 79
2005-10-04 06:58:01 51°16.243 2°52.958 -999 47 14.1 102880 79
2005-10-04 06:58:06 51°16.259 2°52.947 -999 48 14.1 102880 78
2005-10-04 06:58:11 51°16.274 2°52.936 -999 46 14.1 102880 78
2005-10-04 06:58:16 51°16.29 2°52.926 -999 47 14.1 102880 78
2005-10-04 06:58:20 51°16.303 2°52.919 -999 47 14.1 102880 78
2005-10-04 06:58:26 51°16.323 2°52.909 -999 43 14.1 102880 79
2005-10-04 06:58:31 51°16.339 2°52.902 -999 45 14.1 102880 79
2005-10-04 06:58:36 51°16.355 2°52.895 -999 51 14.1 102880 79
2005-10-04 06:58:41 51°16.371 2°52.888 -999 47 14.1 102880 79
2005-10-04 06:58:46 51°16.388 2°52.881 -999 49 14.1 102880 78
2005-10-04 06:58:51 51°16.404 2°52.874 -999 43 14.1 102880 78
2005-10-04 06:58:56 51°16.42 2°52.867 -999 44 14.1 102870 78
2005-10-04 06:59:00 51°16.433 2°52.861 -999 47 14.1 102870 78
2005-10-04 06:59:06 51°16.453 2°52.853 -999 48 14.1 102880 78
2005-10-04 06:59:11 51°16.469 2°52.846 -999 44 14.1 102880 78
2005-10-04 06:59:16 51°16.486 2°52.839 -999 44 14.1 102880 79
2005-10-04 06:59:20 51°16.499 2°52.834 -999 49 14.1 102880 79
2005-10-04 06:59:26 51°16.519 2°52.827 -999 49 14.1 102880 79
2005-10-04 06:59:31 51°16.535 2°52.819 -999 51 14.1 102880 79
2005-10-04 06:59:36 51°16.552 2°52.814 -999 51 14.1 102870 78
2005-10-04 06:59:40 51°16.565 2°52.808 -999 48 14.1 102870 78
2005-10-04 06:59:46 51°16.584 2°52.802 -999 50 14.1 102870 78
2005-10-04 06:59:51 51°16.601 2°52.795 -999 45 14.1 102870 78
2005-10-04 06:59:56 51°16.617 2°52.79 -999 49 14.1 102860 78
2005-10-04 07:00:00 51°16.631 2°52.785 -999 55 14.1 102860 78
2005-10-04 07:00:06 51°16.65 2°52.777 -999 52 14.1 102870 78
2005-10-04 07:00:11 51°16.667 2°52.772 -999 51 14.1 102870 78
2005-10-04 07:00:16 51°16.683 2°52.765 -999 52 14.1 102880 78
2005-10-04 07:00:20 51°16.697 2°52.761 -999 52 14.1 102880 78
2005-10-04 07:00:26 51°16.716 2°52.753 -999 50 14.1 102870 78
2005-10-04 07:00:31 51°16.733 2°52.748 -999 48 14.1 102870 78
2005-10-04 07:00:36 51°16.749 2°52.741 -999 50 14.1 102880 78
2005-10-04 07:00:40 51°16.762 2°52.737 -999 48 14.1 102880 78
2005-10-04 07:00:46 51°16.781 2°52.73 -999 44 14.1 102870 78
2005-10-04 07:00:51 51°16.797 2°52.726 -999 49 14.1 102870 78
2005-10-04 07:00:56 51°16.814 2°52.72 -999 46 14.2 102870 78
2005-10-04 07:01:00 51°16.826 2°52.716 -999 49 14.2 102870 78
2005-10-04 07:01:06 51°16.846 2°52.708 -999 47 14.2 102880 79
2005-10-04 07:01:11 51°16.862 2°52.702 -999 44 14.2 102880 79
2005-10-04 07:01:16 51°16.878 2°52.695 -999 46 14.2 102880 78
2005-10-04 07:01:20 51°16.89 2°52.691 -999 39 14.2 102880 78
2005-10-04 07:01:26 51°16.91 2°52.685 -999 41 14.2 102880 78
2005-10-04 07:01:31 51°16.926 2°52.68 -999 44 14.2 102880 78
2005-10-04 07:01:36 51°16.942 2°52.674 -999 45 14.2 102880 79
2005-10-04 07:01:40 51°16.955 2°52.669 -999 51 14.2 102880 79
2005-10-04 07:01:46 51°16.974 2°52.661 -999 48 14.2 102880 79
2005-10-04 07:01:51 51°16.991 2°52.654 -999 48 14.2 102880 79
2005-10-04 07:01:56 51°17.007 2°52.648 -999 45 14.2 102880 79
2005-10-04 07:02:01 51°17.023 2°52.643 -999 43 14.2 102880 79
2005-10-04 07:02:06 51°17.04 2°52.637 -999 49 14.2 102880 79
2005-10-04 07:02:11 51°17.056 2°52.632 -999 42 14.2 102880 79
2005-10-04 07:02:16 51°17.073 2°52.627 -999 41 14.2 102880 79
2005-10-04 07:02:20 51°17.085 2°52.623 -999 39 14.2 102880 79
2005-10-04 07:02:26 51°17.105 2°52.619 -999 35 14.2 102880 78
2005-10-04 07:02:31 51°17.121 2°52.616 -999 46 14.2 102880 78
2005-10-04 07:02:36 51°17.137 2°52.613 -999 47 14.2 102880 79
2005-10-04 07:02:40 51°17.15 2°52.61 -999 45 14.2 102880 79
2005-10-04 07:02:46 51°17.17 2°52.604 -999 47 14.2 102880 80
2005-10-04 07:02:51 51°17.186 2°52.598 -999 54 14.2 102880 80
2005-10-04 07:02:56 51°17.202 2°52.591 -999 49 14.2 102880 79
2005-10-04 07:03:00 51°17.214 2°52.584 -999 48 14.2 102880 79
2005-10-04 07:03:06 51°17.234 2°52.577 -999 49 14.2 102870 79
2005-10-04 07:03:11 51°17.25 2°52.571 -999 52 14.2 102870 79
2005-10-04 07:03:16 51°17.266 2°52.565 -999 51 14.2 102880 79
2005-10-04 07:03:21 51°17.282 2°52.561 -999 47 14.2 102880 79
2005-10-04 07:03:26 51°17.299 2°52.555 -999 48 14.2 102870 79
2005-10-04 07:03:31 51°17.315 2°52.55 -999 48 14.2 102870 79
2005-10-04 07:03:36 51°17.331 2°52.544 -999 49 14.2 102870 78
2005-10-04 07:03:40 51°17.344 2°52.54 -999 51 14.2 102870 78
2005-10-04 07:03:46 51°17.364 2°52.532 -999 52 14.2 102880 78
2005-10-04 07:03:51 51°17.38 2°52.525 -999 44 14.2 102880 78
2005-10-04 07:03:56 51°17.396 2°52.519 -999 48 14.2 102870 78
2005-10-04 07:04:00 51°17.409 2°52.515 -999 48 14.2 102870 78
2005-10-04 07:04:06 51°17.429 2°52.51 -999 45 14.2 102880 78
2005-10-04 07:04:11 51°17.445 2°52.508 -999 43 14.2 102880 78
2005-10-04 07:04:16 51°17.462 2°52.507 -999 37 14.2 102870 78
2005-10-04 07:04:20 51°17.475 2°52.506 -999 39 14.2 102870 78
2005-10-04 07:04:26 51°17.495 2°52.507 -999 39 14.2 102870 78
2005-10-04 07:04:31 51°17.511 2°52.508 -999 36 14.2 102870 78
2005-10-04 07:04:36 51°17.527 2°52.509 -999 38 14.2 102880 78
2005-10-04 07:04:40 51°17.54 2°52.511 -999 38 14.2 102880 78
2005-10-04 07:04:46 51°17.56 2°52.512 -999 37 14.2 102880 78
2005-10-04 07:04:51 51°17.576 2°52.513 -999 40 14.2 102880 78
2005-10-04 07:04:56 51°17.592 2°52.514 -999 42 14.2 102870 78
2005-10-04 07:05:00 51°17.605 2°52.515 -999 39 14.2 102870 78
2005-10-04 07:05:06 51°17.625 2°52.516 -999 41 14.2 102870 77
2005-10-04 07:05:11 51°17.641 2°52.518 -999 38 14.2 102870 77
2005-10-04 07:05:16 51°17.657 2°52.521 -999 40 14.2 102880 77
2005-10-04 07:05:20 51°17.67 2°52.522 -999 37 14.2 102880 77
2005-10-04 07:05:26 51°17.689 2°52.524 -999 42 14.2 102880 77
2005-10-04 07:05:31 51°17.705 2°52.524 -999 43 14.2 102880 77
2005-10-04 07:05:36 51°17.721 2°52.526 -999 43 14.2 102880 77
2005-10-04 07:05:40 51°17.734 2°52.526 -999 39 14.2 102880 77
2005-10-04 07:05:46 51°17.754 2°52.527 -999 41 14.2 102870 77
2005-10-04 07:05:51 51°17.77 2°52.528 -999 40 14.2 102870 77
2005-10-04 07:05:56 51°17.786 2°52.529 -999 40 14.2 102880 77
2005-10-04 07:06:00 51°17.798 2°52.53 -999 43 14.2 102880 77
2005-10-04 07:06:06 51°17.818 2°52.531 -999 38 14.2 102870 77
2005-10-04 07:06:11 51°17.834 2°52.532 -999 39 14.2 102870 77
2005-10-04 07:06:16 51°17.85 2°52.533 -999 42 14.2 102870 77
2005-10-04 07:06:20 51°17.863 2°52.536 -999 35 14.2 102870 77
2005-10-04 07:06:26 51°17.882 2°52.539 -999 35 14.2 102870 77
2005-10-04 07:06:31 51°17.897 2°52.544 -999 26 14.2 102870 77
2005-10-04 07:06:36 51°17.913 2°52.549 -999 26 14.2 102880 78
2005-10-04 07:06:40 51°17.925 2°52.554 -999 27 14.2 102880 78
2005-10-04 07:06:46 51°17.943 2°52.56 -999 27 14.3 102880 78
2005-10-04 07:06:51 51°17.959 2°52.568 -999 29 14.3 102880 78
2005-10-04 07:06:56 51°17.974 2°52.573 -999 27 14.2 102890 79
2005-10-04 07:07:00 51°17.986 2°52.578 -999 31 14.2 102890 79
2005-10-04 07:07:06 51°18.005 2°52.585 -999 29 14.2 102880 78
2005-10-04 07:07:11 51°18.02 2°52.59 -999 33 14.2 102880 78
2005-10-04 07:07:16 51°18.036 2°52.595 -999 32 14.2 102880 79
2005-10-04 07:07:20 51°18.048 2°52.599 -999 32 14.2 102880 79
2005-10-04 07:07:26 51°18.067 2°52.605 -999 32 14.2 102870 78
2005-10-04 07:07:31 51°18.083 2°52.611 -999 30 14.2 102870 78
2005-10-04 07:07:36 51°18.098 2°52.617 -999 31 14.2 102880 78
2005-10-04 07:07:40 51°18.111 2°52.622 -999 32 14.2 102880 78
2005-10-04 07:07:46 51°18.129 2°52.629 -999 30 14.2 102880 78
2005-10-04 07:07:51 51°18.144 2°52.635 -999 33 14.2 102880 78
2005-10-04 07:07:56 51°18.16 2°52.64 -999 31 14.2 102880 78
2005-10-04 07:08:00 51°18.173 2°52.644 -999 33 14.2 102880 78
2005-10-04 07:08:06 51°18.191 2°52.65 -999 33 14.2 102880 78
2005-10-04 07:08:11 51°18.207 2°52.655 -999 30 14.2 102880 78
2005-10-04 07:08:16 51°18.223 2°52.661 -999 32 14.2 102880 78
2005-10-04 07:08:20 51°18.235 2°52.666 -999 32 14.2 102880 78
2005-10-04 07:08:26 51°18.254 2°52.673 -999 30 14.2 102880 78
2005-10-04 07:08:31 51°18.27 2°52.679 -999 35 14.2 102880 78
2005-10-04 07:08:36 51°18.285 2°52.685 -999 37 14.2 102880 77
2005-10-04 07:08:40 51°18.298 2°52.689 -999 34 14.2 102880 77
2005-10-04 07:08:46 51°18.317 2°52.695 -999 33 14.2 102880 78
2005-10-04 07:08:51 51°18.332 2°52.699 -999 31 14.2 102880 78
2005-10-04 07:08:56 51°18.348 2°52.704 -999 30 14.2 102880 77
2005-10-04 07:09:00 51°18.361 2°52.707 -999 33 14.2 102880 77
2005-10-04 07:09:06 51°18.38 2°52.711 -999 36 14.2 102880 77
2005-10-04 07:09:11 51°18.396 2°52.714 -999 33 14.2 102880 77
2005-10-04 07:09:16 51°18.412 2°52.716 -999 34 14.2 102880 78
2005-10-04 07:09:21 51°18.428 2°52.719 -999 34 14.2 102880 78
2005-10-04 07:09:26 51°18.444 2°52.722 -999 36 14.2 102880 78
2005-10-04 07:09:31 51°18.461 2°52.724 -999 38 14.2 102880 78
2005-10-04 07:09:36 51°18.477 2°52.726 -999 39 14.2 102880 77
2005-10-04 07:09:41 51°18.493 2°52.728 -999 36 14.2 102880 77
2005-10-04 07:09:46 51°18.509 2°52.731 -999 34 14.2 102880 77
2005-10-04 07:09:51 51°18.525 2°52.734 -999 35 14.2 102880 77
2005-10-04 07:09:56 51°18.541 2°52.737 -999 36 14.2 102880 77
2005-10-04 07:10:01 51°18.557 2°52.74 -999 36 14.2 102880 77
2005-10-04 07:10:06 51°18.573 2°52.741 -999 37 14.2 102870 77
2005-10-04 07:10:11 51°18.589 2°52.743 -999 36 14.2 102870 77
2005-10-04 07:10:16 51°18.605 2°52.744 -999 33 14.2 102870 77
2005-10-04 07:10:21 51°18.621 2°52.745 -999 36 14.2 102870 77
2005-10-04 07:10:26 51°18.637 2°52.747 -999 35 14.2 102870 77
2005-10-04 07:10:31 51°18.653 2°52.749 -999 34 14.2 102870 77
2005-10-04 07:10:36 51°18.669 2°52.751 -999 33 14.2 102880 77
2005-10-04 07:10:40 51°18.681 2°52.754 -999 33 14.2 102880 77
2005-10-04 07:10:46 51°18.7 2°52.757 -999 34 14.2 102870 77
2005-10-04 07:10:51 51°18.716 2°52.759 -999 37 14.2 102870 77
2005-10-04 07:10:56 51°18.732 2°52.761 -999 37 14.2 102880 77
2005-10-04 07:11:00 51°18.745 2°52.763 -999 32 14.2 102880 77
2005-10-04 07:11:06 51°18.764 2°52.764 -999 32 14.2 102880 77
2005-10-04 07:11:11 51°18.78 2°52.766 -999 30 14.2 102880 77
2005-10-04 07:11:16 51°18.796 2°52.767 -999 32 14.2 102870 78
2005-10-04 07:11:20 51°18.809 2°52.769 -999 34 14.2 102870 78
2005-10-04 07:11:26 51°18.828 2°52.77 -999 34 14.2 102870 78
2005-10-04 07:11:31 51°18.844 2°52.772 -999 31 14.2 102870 78
2005-10-04 07:11:36 51°18.86 2°52.774 -999 34 14.2 102880 78
2005-10-04 07:11:40 51°18.873 2°52.775 -999 36 14.2 102880 78
2005-10-04 07:11:46 51°18.891 2°52.777 -999 35 14.2 102880 77
2005-10-04 07:11:51 51°18.907 2°52.779 -999 35 14.2 102880 77
2005-10-04 07:11:56 51°18.923 2°52.781 -999 31 14.2 102870 77
2005-10-04 07:12:00 51°18.936 2°52.783 -999 39 14.2 102870 77
2005-10-04 07:12:06 51°18.955 2°52.785 -999 35 14.2 102880 77
2005-10-04 07:12:11 51°18.971 2°52.788 -999 31 14.2 102880 77
2005-10-04 07:12:16 51°18.987 2°52.79 -999 31 14.2 102880 76
2005-10-04 07:12:21 51°19.003 2°52.792 -999 34 14.2 102880 76
2005-10-04 07:12:26 51°19.019 2°52.794 -999 37 14.2 102880 77
2005-10-04 07:12:31 51°19.035 2°52.795 -999 40 14.2 102880 77
2005-10-04 07:12:36 51°19.05 2°52.797 -999 40 14.3 102880 77
2005-10-04 07:12:41 51°19.066 2°52.798 -999 37 14.3 102880 77
2005-10-04 07:12:46 51°19.083 2°52.8 -999 39 14.2 102870 77
2005-10-04 07:12:51 51°19.098 2°52.803 -999 37 14.2 102870 77
2005-10-04 07:12:56 51°19.114 2°52.804 -999 39 14.2 102870 76
2005-10-04 07:13:00 51°19.127 2°52.806 -999 34 14.2 102870 76
2005-10-04 07:13:06 51°19.146 2°52.807 -999 36 14.2 102870 76
2005-10-04 07:13:11 51°19.162 2°52.808 -999 35 14.2 102870 76
2005-10-04 07:13:16 51°19.178 2°52.809 -999 34 14.2 102870 76
2005-10-04 07:13:20 51°19.191 2°52.811 -999 37 14.2 102870 76
2005-10-04 07:13:26 51°19.21 2°52.813 -999 37 14.2 102880 77
2005-10-04 07:13:31 51°19.226 2°52.815 -999 37 14.2 102880 77
2005-10-04 07:13:36 51°19.242 2°52.817 -999 36 14.2 102880 77
2005-10-04 07:13:41 51°19.258 2°52.819 -999 36 14.2 102880 77
2005-10-04 07:13:46 51°19.274 2°52.82 -999 30 14.2 102870 77
2005-10-04 07:13:51 51°19.29 2°52.822 -999 29 14.2 102870 77
2005-10-04 07:13:56 51°19.306 2°52.823 -999 35 14.2 102870 77
2005-10-04 07:14:00 51°19.319 2°52.825 -999 38 14.2 102870 77
2005-10-04 07:14:06 51°19.338 2°52.827 -999 36 14.2 102880 77
2005-10-04 07:14:11 51°19.354 2°52.828 -999 37 14.2 102880 77
2005-10-04 07:14:16 51°19.37 2°52.828 -999 34 14.2 102880 77
2005-10-04 07:14:20 51°19.383 2°52.828 -999 36 14.2 102880 77
2005-10-04 07:14:26 51°19.402 2°52.827 -999 38 14.2 102870 76
2005-10-04 07:14:31 51°19.418 2°52.825 -999 41 14.2 102870 76
2005-10-04 07:14:36 51°19.434 2°52.824 -999 38 14.2 102870 75
2005-10-04 07:14:40 51°19.447 2°52.824 -999 35 14.2 102870 75
2005-10-04 07:14:46 51°19.467 2°52.823 -999 38 14.2 102870 75
2005-10-04 07:14:51 51°19.483 2°52.823 -999 37 14.2 102870 75
2005-10-04 07:14:56 51°19.499 2°52.823 -999 40 14.2 102870 75
2005-10-04 07:15:00 51°19.512 2°52.823 -999 38 14.2 102870 75
2005-10-04 07:15:06 51°19.532 2°52.823 -999 40 14.2 102870 76
2005-10-04 07:15:11 51°19.548 2°52.823 -999 41 14.2 102870 76
2005-10-04 07:15:16 51°19.564 2°52.822 -999 42 14.2 102870 75
2005-10-04 07:15:20 51°19.577 2°52.821 -999 39 14.2 102870 75
2005-10-04 07:15:26 51°19.597 2°52.821 -999 38 14.2 102870 76
2005-10-04 07:15:31 51°19.613 2°52.82 -999 41 14.2 102870 76
2005-10-04 07:15:36 51°19.629 2°52.82 -999 41 14.2 102870 75
2005-10-04 07:15:40 51°19.642 2°52.819 -999 35 14.2 102870 75
2005-10-04 07:15:46 51°19.662 2°52.818 -999 42 14.2 102880 75
2005-10-04 07:15:51 51°19.678 2°52.817 -999 40 14.2 102880 75
2005-10-04 07:15:56 51°19.695 2°52.816 -999 40 14.2 102870 75
2005-10-04 07:16:00 51°19.708 2°52.815 -999 41 14.2 102870 75
2005-10-04 07:16:06 51°19.727 2°52.814 -999 40 14.2 102870 75
2005-10-04 07:16:11 51°19.743 2°52.813 -999 38 14.2 102870 75
2005-10-04 07:16:16 51°19.76 2°52.812 -999 38 14.2 102870 75
2005-10-04 07:16:20 51°19.773 2°52.811 -999 35 14.2 102870 75
2005-10-04 07:16:26 51°19.792 2°52.809 -999 37 14.2 102870 75
2005-10-04 07:16:31 51°19.809 2°52.807 -999 34 14.2 102870 75
2005-10-04 07:16:36 51°19.825 2°52.806 -999 35 14.3 102870 75
2005-10-04 07:16:40 51°19.838 2°52.805 -999 31 14.3 102870 75
2005-10-04 07:16:46 51°19.857 2°52.802 -999 34 14.3 102870 75
2005-10-04 07:16:51 51°19.874 2°52.801 -999 36 14.3 102870 75
2005-10-04 07:16:56 51°19.89 2°52.8 -999 35 14.3 102880 75
2005-10-04 07:17:00 51°19.903 2°52.8 -999 32 14.3 102880 75
2005-10-04 07:17:06 51°19.923 2°52.8 -999 34 14.3 102880 75
2005-10-04 07:17:11 51°19.939 2°52.8 -999 37 14.3 102880 75
2005-10-04 07:17:16 51°19.955 2°52.8 -999 37 14.3 102880 76
2005-10-04 07:17:20 51°19.968 2°52.8 -999 32 14.3 102880 76
2005-10-04 07:17:26 51°19.988 2°52.799 -999 39 14.3 102880 76
2005-10-04 07:17:31 51°20.004 2°52.798 -999 36 14.3 102880 76
2005-10-04 07:17:36 51°20.021 2°52.798 -999 36 14.3 102880 76
2005-10-04 07:17:40 51°20.034 2°52.798 -999 37 14.3 102880 76
2005-10-04 07:17:46 51°20.053 2°52.797 -999 41 14.3 102880 76
2005-10-04 07:17:51 51°20.069 2°52.797 -999 41 14.3 102880 76
2005-10-04 07:17:56 51°20.086 2°52.796 -999 42 14.3 102880 76
2005-10-04 07:18:00 51°20.099 2°52.795 -999 38 14.3 102880 76
2005-10-04 07:18:06 51°20.118 2°52.794 -999 36 14.3 102880 76
2005-10-04 07:18:11 51°20.134 2°52.793 -999 40 14.3 102880 76
2005-10-04 07:18:16 51°20.151 2°52.793 -999 39 14.3 102870 76
2005-10-04 07:18:20 51°20.164 2°52.792 -999 33 14.3 102870 76
2005-10-04 07:18:26 51°20.183 2°52.792 -999 38 14.3 102870 76
2005-10-04 07:18:31 51°20.2 2°52.791 -999 35 14.3 102870 76
2005-10-04 07:18:36 51°20.216 2°52.791 -999 34 14.3 102880 77
2005-10-04 07:18:40 51°20.229 2°52.79 -999 36 14.3 102880 77
2005-10-04 07:18:46 51°20.248 2°52.79 -999 33 14.3 102880 77
2005-10-04 07:18:51 51°20.265 2°52.789 -999 36 14.3 102880 77
2005-10-04 07:18:56 51°20.281 2°52.788 -999 37 14.3 102880 77
2005-10-04 07:19:00 51°20.294 2°52.787 -999 39 14.3 102880 77
2005-10-04 07:19:06 51°20.314 2°52.786 -999 39 14.3 102880 76
2005-10-04 07:19:11 51°20.33 2°52.785 -999 35 14.3 102880 76
2005-10-04 07:19:16 51°20.346 2°52.784 -999 38 14.3 102880 76
2005-10-04 07:19:20 51°20.359 2°52.783 -999 41 14.3 102880 76
2005-10-04 07:19:26 51°20.378 2°52.782 -999 39 14.3 102870 75
2005-10-04 07:19:31 51°20.395 2°52.781 -999 37 14.3 102870 75
2005-10-04 07:19:36 51°20.411 2°52.78 -999 38 14.3 102880 75
2005-10-04 07:19:40 51°20.424 2°52.779 -999 36 14.3 102880 75
2005-10-04 07:19:46 51°20.444 2°52.779 -999 37 14.3 102870 75
2005-10-04 07:19:51 51°20.46 2°52.779 -999 38 14.3 102870 75
2005-10-04 07:19:56 51°20.476 2°52.779 -999 36 14.3 102870 75
2005-10-04 07:20:00 51°20.489 2°52.779 -999 37 14.3 102870 75
2005-10-04 07:20:06 51°20.508 2°52.78 -999 40 14.3 102880 75
2005-10-04 07:20:11 51°20.525 2°52.78 -999 42 14.3 102880 75
2005-10-04 07:20:16 51°20.541 2°52.779 -999 42 14.3 102880 75
2005-10-04 07:20:20 51°20.554 2°52.779 -999 44 14.3 102880 75
2005-10-04 07:20:26 51°20.574 2°52.778 -999 41 14.3 102880 75
2005-10-04 07:20:31 51°20.59 2°52.777 -999 39 14.3 102880 75
2005-10-04 07:20:36 51°20.607 2°52.777 -999 38 14.3 102870 75
2005-10-04 07:20:40 51°20.619 2°52.777 -999 38 14.3 102870 75
2005-10-04 07:20:46 51°20.639 2°52.778 -999 38 14.3 102870 74
2005-10-04 07:20:51 51°20.655 2°52.779 -999 35 14.3 102870 74
2005-10-04 07:20:56 51°20.672 2°52.779 -999 38 14.3 102870 74
2005-10-04 07:21:00 51°20.685 2°52.78 -999 39 14.3 102870 74
2005-10-04 07:21:06 51°20.704 2°52.779 -999 37 14.3 102880 74
2005-10-04 07:21:11 51°20.721 2°52.778 -999 36 14.3 102880 74
2005-10-04 07:21:16 51°20.737 2°52.778 -999 39 14.3 102880 75
2005-10-04 07:21:20 51°20.75 2°52.779 -999 27 14.3 102880 75
2005-10-04 07:21:26 51°20.769 2°52.782 -999 26 14.3 102880 75
2005-10-04 07:21:31 51°20.784 2°52.786 -999 29 14.3 102880 75
2005-10-04 07:21:36 51°20.8 2°52.791 -999 32 14.3 102890 75
2005-10-04 07:21:40 51°20.812 2°52.794 -999 34 14.3 102890 75
2005-10-04 07:21:46 51°20.831 2°52.799 -999 32 14.3 102870 75
2005-10-04 07:21:51 51°20.847 2°52.802 -999 34 14.3 102870 75
2005-10-04 07:21:56 51°20.862 2°52.807 -999 29 14.3 102880 75
2005-10-04 07:22:00 51°20.875 2°52.812 -999 24 14.3 102880 75
2005-10-04 07:22:06 51°20.893 2°52.82 -999 25 14.3 102890 75
2005-10-04 07:22:11 51°20.907 2°52.828 -999 23 14.3 102890 75
2005-10-04 07:22:16 51°20.922 2°52.837 -999 22 14.3 102880 74
2005-10-04 07:22:20 51°20.933 2°52.845 -999 27 14.3 102880 74
2005-10-04 07:22:26 51°20.951 2°52.856 -999 25 14.3 102880 74
2005-10-04 07:22:31 51°20.965 2°52.866 -999 26 14.3 102880 74
2005-10-04 07:22:36 51°20.98 2°52.874 -999 26 14.3 102890 75
2005-10-04 07:22:40 51°20.991 2°52.882 -999 24 14.3 102890 75
2005-10-04 07:22:46 51°21.009 2°52.893 -999 22 14.3 102880 75
2005-10-04 07:22:51 51°21.023 2°52.902 -999 23 14.3 102880 75
2005-10-04 07:22:56 51°21.038 2°52.911 -999 23 14.3 102880 75
2005-10-04 07:23:00 51°21.049 2°52.919 -999 27 14.3 102880 75
2005-10-04 07:23:06 51°21.067 2°52.929 -999 28 14.3 102880 74
2005-10-04 07:23:11 51°21.082 2°52.939 -999 25 14.3 102880 74
2005-10-04 07:23:16 51°21.096 2°52.948 -999 26 14.3 102890 75
2005-10-04 07:23:20 51°21.108 2°52.955 -999 25 14.3 102890 75
2005-10-04 07:23:26 51°21.125 2°52.966 -999 26 14.3 102870 75
2005-10-04 07:23:31 51°21.14 2°52.974 -999 27 14.3 102870 75
2005-10-04 07:23:36 51°21.155 2°52.983 -999 28 14.3 102880 74
2005-10-04 07:23:41 51°21.169 2°52.992 -999 26 14.3 102880 74
2005-10-04 07:23:46 51°21.184 2°53.001 -999 28 14.3 102880 74
2005-10-04 07:23:51 51°21.198 2°53.01 -999 28 14.3 102880 74
2005-10-04 07:23:56 51°21.213 2°53.019 -999 30 14.4 102880 74
2005-10-04 07:24:00 51°21.225 2°53.026 -999 25 14.4 102880 74
2005-10-04 07:24:06 51°21.242 2°53.037 -999 28 14.4 102880 74
2005-10-04 07:24:11 51°21.257 2°53.046 -999 28 14.4 102880 74
2005-10-04 07:24:16 51°21.271 2°53.055 -999 27 14.4 102880 74
2005-10-04 07:24:21 51°21.286 2°53.064 -999 27 14.4 102880 74
2005-10-04 07:24:26 51°21.301 2°53.073 -999 27 14.3 102880 74
2005-10-04 07:24:31 51°21.315 2°53.082 -999 27 14.3 102880 74
2005-10-04 07:24:36 51°21.33 2°53.091 -999 27 14.3 102880 74
2005-10-04 07:24:41 51°21.344 2°53.1 -999 27 14.3 102880 74
2005-10-04 07:24:46 51°21.359 2°53.109 -999 26 14.4 102880 74
2005-10-04 07:24:51 51°21.373 2°53.119 -999 22 14.4 102880 74
2005-10-04 07:24:56 51°21.388 2°53.128 -999 21 14.4 102880 75
2005-10-04 07:25:01 51°21.402 2°53.138 -999 20 14.4 102880 75
2005-10-04 07:25:06 51°21.417 2°53.148 -999 21 14.4 102880 76
2005-10-04 07:25:11 51°21.432 2°53.156 -999 23 14.4 102880 76
2005-10-04 07:25:16 51°21.447 2°53.165 -999 22 14.4 102890 76
2005-10-04 07:25:21 51°21.462 2°53.172 -999 23 14.4 102890 76
2005-10-04 07:25:26 51°21.477 2°53.18 -999 25 14.4 102890 76
2005-10-04 07:25:31 51°21.491 2°53.188 -999 22 14.4 102890 76
2005-10-04 07:25:36 51°21.506 2°53.196 -999 22 14.4 102880 75
2005-10-04 07:25:40 51°21.518 2°53.203 -999 19 14.4 102880 75
2005-10-04 07:25:46 51°21.536 2°53.214 -999 21 14.4 102880 75
2005-10-04 07:25:51 51°21.55 2°53.223 -999 22 14.4 102880 75
2005-10-04 07:25:56 51°21.565 2°53.232 -999 23 14.4 102890 75
2005-10-04 07:26:00 51°21.577 2°53.24 -999 20 14.4 102890 75
2005-10-04 07:26:06 51°21.594 2°53.251 -999 19 14.4 102880 75
2005-10-04 07:26:11 51°21.609 2°53.26 -999 18 14.4 102880 75
2005-10-04 07:26:16 51°21.623 2°53.27 -999 22 14.4 102880 75
2005-10-04 07:26:20 51°21.635 2°53.277 -999 24 14.4 102880 75
2005-10-04 07:26:26 51°21.653 2°53.287 -999 23 14.4 102880 75
2005-10-04 07:26:31 51°21.668 2°53.296 -999 24 14.4 102880 75
2005-10-04 07:26:36 51°21.683 2°53.305 -999 25 14.4 102890 75
2005-10-04 07:26:41 51°21.697 2°53.313 -999 26 14.4 102890 75
2005-10-04 07:26:46 51°21.712 2°53.321 -999 25 14.4 102890 74
2005-10-04 07:26:51 51°21.727 2°53.329 -999 24 14.4 102890 74
2005-10-04 07:26:56 51°21.742 2°53.337 -999 25 14.4 102880 74
2005-10-04 07:27:00 51°21.754 2°53.344 -999 24 14.4 102880 74
2005-10-04 07:27:06 51°21.772 2°53.354 -999 26 14.4 102890 74
2005-10-04 07:27:11 51°21.787 2°53.362 -999 24 14.4 102890 74
2005-10-04 07:27:16 51°21.802 2°53.37 -999 25 14.4 102880 74
2005-10-04 07:27:20 51°21.814 2°53.377 -999 23 14.4 102880 74
2005-10-04 07:27:26 51°21.831 2°53.388 -999 22 14.4 102890 74
2005-10-04 07:27:31 51°21.846 2°53.396 -999 23 14.4 102890 74
2005-10-04 07:27:36 51°21.861 2°53.404 -999 20 14.4 102880 73
2005-10-04 07:27:40 51°21.873 2°53.411 -999 19 14.4 102880 73
2005-10-04 07:27:46 51°21.891 2°53.422 -999 23 14.4 102880 74
2005-10-04 07:27:51 51°21.906 2°53.431 -999 24 14.4 102880 74
2005-10-04 07:27:56 51°21.921 2°53.44 -999 23 14.4 102880 74
2005-10-04 07:28:00 51°21.933 2°53.447 -999 20 14.4 102880 74
2005-10-04 07:28:06 51°21.951 2°53.458 -999 21 14.4 102890 74
2005-10-04 07:28:11 51°21.966 2°53.467 -999 26 14.4 102890 74
2005-10-04 07:28:16 51°21.981 2°53.476 -999 26 14.4 102880 74
2005-10-04 07:28:21 51°21.993 2°53.483 -999 25 14.4 102880 74
2005-10-04 07:28:27 51°22.011 2°53.493 -999 26 14.4 102880 74
2005-10-04 07:28:32 51°22.026 2°53.502 -999 25 14.4 102880 74
2005-10-04 07:28:37 51°22.041 2°53.51 -999 25 14.4 102880 74
2005-10-04 07:28:41 51°22.053 2°53.518 -999 22 14.4 102880 74
2005-10-04 07:28:47 51°22.071 2°53.528 -999 21 14.4 102880 74
2005-10-04 07:28:52 51°22.085 2°53.537 -999 27 14.4 102880 74
2005-10-04 07:28:57 51°22.1 2°53.547 -999 29 14.4 102880 74
2005-10-04 07:29:01 51°22.112 2°53.554 -999 27 14.4 102880 74
2005-10-04 07:29:05 51°22.123 2°53.562 -999 27 14.4 102880 74
2005-10-04 07:29:12 51°22.144 2°53.575 -999 22 14.4 102880 74
2005-10-04 07:29:17 51°22.158 2°53.585 -999 22 14.4 102890 74
2005-10-04 07:29:21 51°22.17 2°53.592 -999 23 14.4 102890 74
2005-10-04 07:29:27 51°22.188 2°53.604 -999 22 14.4 102890 74
2005-10-04 07:29:32 51°22.202 2°53.613 -999 22 14.4 102890 74
2005-10-04 07:29:37 51°22.217 2°53.622 -999 21 14.4 102890 75
2005-10-04 07:29:41 51°22.228 2°53.63 -999 21 14.4 102890 75
2005-10-04 07:29:47 51°22.246 2°53.64 -999 24 14.4 102880 75
2005-10-04 07:29:52 51°22.261 2°53.649 -999 24 14.4 102880 75
2005-10-04 07:29:57 51°22.276 2°53.658 -999 23 14.4 102880 75
2005-10-04 07:30:01 51°22.288 2°53.666 -999 21 14.4 102880 75
2005-10-04 07:30:07 51°22.305 2°53.678 -999 23 14.4 102880 74
2005-10-04 07:30:12 51°22.319 2°53.689 -999 17 14.4 102880 74
2005-10-04 07:30:17 51°22.332 2°53.7 -999 18 14.4 102880 74
2005-10-04 07:30:21 51°22.343 2°53.71 -999 18 14.4 102880 74
2005-10-04 07:30:27 51°22.359 2°53.725 -999 18 14.4 102880 74
2005-10-04 07:30:32 51°22.372 2°53.739 -999 15 14.4 102880 74
2005-10-04 07:30:37 51°22.385 2°53.752 -999 16 14.4 102880 74
2005-10-04 07:30:41 51°22.395 2°53.763 -999 17 14.4 102880 74
2005-10-04 07:30:47 51°22.411 2°53.779 -999 14 14.4 102890 74
2005-10-04 07:30:52 51°22.424 2°53.793 -999 18 14.4 102890 74
2005-10-04 07:30:57 51°22.437 2°53.806 -999 23 14.4 102890 74
2005-10-04 07:31:01 51°22.448 2°53.816 -999 22 14.4 102890 74
2005-10-04 07:31:07 51°22.463 2°53.832 -999 22 14.4 102880 73
2005-10-04 07:31:12 51°22.476 2°53.845 -999 25 14.4 102880 73
2005-10-04 07:31:17 51°22.489 2°53.858 -999 23 14.4 102890 73
2005-10-04 07:31:21 51°22.5 2°53.869 -999 23 14.4 102890 73
2005-10-04 07:31:27 51°22.516 2°53.885 -999 26 14.4 102890 73
2005-10-04 07:31:32 51°22.529 2°53.898 -999 20 14.4 102890 73
2005-10-04 07:31:37 51°22.541 2°53.911 -999 19 14.4 102880 73
2005-10-04 07:31:41 51°22.552 2°53.923 -999 20 14.4 102880 73
2005-10-04 07:31:47 51°22.567 2°53.94 -999 12 14.4 102890 74
2005-10-04 07:31:52 51°22.579 2°53.954 -999 13 14.4 102890 74
2005-10-04 07:31:57 51°22.592 2°53.968 -999 15 14.4 102890 74
2005-10-04 07:32:01 51°22.602 2°53.979 -999 15 14.4 102890 74
2005-10-04 07:32:07 51°22.618 2°53.994 -999 19 14.4 102880 74
2005-10-04 07:32:12 51°22.631 2°54.007 -999 16 14.4 102880 74
2005-10-04 07:32:17 51°22.644 2°54.02 -999 19 14.4 102890 74
2005-10-04 07:32:21 51°22.655 2°54.03 -999 18 14.4 102890 74
2005-10-04 07:32:27 51°22.67 2°54.045 -999 18 14.5 102890 74
2005-10-04 07:32:31 51°22.681 2°54.056 -999 18 14.5 102890 74
2005-10-04 07:32:37 51°22.697 2°54.072 -999 18 14.4 102890 74
2005-10-04 07:32:42 51°22.71 2°54.086 -999 17 14.4 102890 74
2005-10-04 07:32:47 51°22.723 2°54.1 -999 22 14.4 102890 73
2005-10-04 07:32:52 51°22.736 2°54.113 -999 21 14.4 102890 73
2005-10-04 07:32:57 51°22.749 2°54.126 -999 21 14.4 102880 73
2005-10-04 07:33:01 51°22.76 2°54.137 -999 17 14.4 102880 73
2005-10-04 07:33:07 51°22.776 2°54.154 -999 16 14.4 102880 73
2005-10-04 07:33:12 51°22.789 2°54.168 -999 10 14.4 102880 73
2005-10-04 07:33:17 51°22.802 2°54.183 -999 14 14.4 102880 74
2005-10-04 07:33:21 51°22.812 2°54.195 -999 14 14.4 102880 74
2005-10-04 07:33:27 51°22.828 2°54.212 -999 15 14.4 102880 74
2005-10-04 07:33:32 51°22.841 2°54.227 -999 15 14.4 102880 74
2005-10-04 07:33:37 51°22.854 2°54.242 -999 13 14.5 102880 74
2005-10-04 07:33:41 51°22.864 2°54.254 -999 16 14.5 102880 74
2005-10-04 07:33:47 51°22.88 2°54.271 -999 16 14.4 102880 74
2005-10-04 07:33:52 51°22.893 2°54.286 -999 18 14.4 102880 74
2005-10-04 07:33:57 51°22.906 2°54.3 -999 16 14.4 102890 74
2005-10-04 07:34:01 51°22.916 2°54.312 -999 21 14.4 102890 74
2005-10-04 07:34:07 51°22.932 2°54.329 -999 19 14.4 102880 74
2005-10-04 07:34:12 51°22.946 2°54.344 -999 18 14.4 102880 74
2005-10-04 07:34:17 51°22.959 2°54.359 -999 18 14.4 102880 74
2005-10-04 07:34:21 51°22.97 2°54.37 -999 16 14.4 102880 74
2005-10-04 07:34:27 51°22.986 2°54.388 -999 16 14.4 102890 74
2005-10-04 07:34:32 51°22.999 2°54.402 -999 15 14.4 102890 74
2005-10-04 07:34:37 51°23.013 2°54.417 -999 15 14.4 102880 73
2005-10-04 07:34:41 51°23.023 2°54.428 -999 19 14.4 102880 73
2005-10-04 07:34:47 51°23.039 2°54.445 -999 20 14.4 102880 74
2005-10-04 07:34:52 51°23.052 2°54.459 -999 23 14.4 102880 74
2005-10-04 07:34:57 51°23.066 2°54.474 -999 21 14.4 102890 74
2005-10-04 07:35:01 51°23.076 2°54.486 -999 20 14.4 102890 74
2005-10-04 07:35:07 51°23.092 2°54.503 -999 21 14.4 102880 73
2005-10-04 07:35:12 51°23.105 2°54.517 -999 20 14.4 102880 73
2005-10-04 07:35:17 51°23.118 2°54.531 -999 20 14.4 102890 73
2005-10-04 07:35:22 51°23.131 2°54.546 -999 25 14.4 102890 73
2005-10-04 07:35:27 51°23.144 2°54.559 -999 19 14.4 102880 73
2005-10-04 07:35:32 51°23.157 2°54.573 -999 21 14.4 102880 73
2005-10-04 07:35:37 51°23.17 2°54.588 -999 21 14.4 102890 73
2005-10-04 07:35:41 51°23.18 2°54.6 -999 18 14.4 102890 73
2005-10-04 07:35:47 51°23.195 2°54.617 -999 21 14.4 102880 73
2005-10-04 07:35:52 51°23.208 2°54.632 -999 20 14.4 102880 73
2005-10-04 07:35:57 51°23.22 2°54.647 -999 22 14.4 102880 74
2005-10-04 07:36:01 51°23.23 2°54.659 -999 18 14.4 102880 74
2005-10-04 07:36:07 51°23.245 2°54.677 -999 23 14.4 102890 73
2005-10-04 07:36:12 51°23.258 2°54.691 -999 22 14.4 102890 73
2005-10-04 07:36:17 51°23.271 2°54.705 -999 23 14.4 102880 73
2005-10-04 07:36:21 51°23.281 2°54.716 -999 18 14.4 102880 73
2005-10-04 07:36:27 51°23.297 2°54.732 -999 15 14.4 102880 73
2005-10-04 07:36:32 51°23.31 2°54.746 -999 16 14.4 102880 73
2005-10-04 07:36:37 51°23.323 2°54.761 -999 19 14.4 102890 73
2005-10-04 07:36:41 51°23.334 2°54.772 -999 19 14.4 102890 73
2005-10-04 07:36:45 51°23.344 2°54.783 -999 17 14.4 102890 74
2005-10-04 07:36:52 51°23.362 2°54.801 -999 20 14.4 102890 74
2005-10-04 07:36:57 51°23.375 2°54.815 -999 21 14.5 102890 75
2005-10-04 07:37:01 51°23.386 2°54.825 -999 19 14.5 102890 75
2005-10-04 07:37:07 51°23.401 2°54.842 -999 17 14.4 102880 74
2005-10-04 07:37:12 51°23.414 2°54.855 -999 21 14.4 102880 74
2005-10-04 07:37:17 51°23.427 2°54.869 -999 23 14.5 102880 74
2005-10-04 07:37:21 51°23.437 2°54.881 -999 23 14.5 102880 74
2005-10-04 07:37:27 51°23.452 2°54.897 -999 22 14.5 102880 74
2005-10-04 07:37:32 51°23.465 2°54.912 -999 24 14.5 102880 74
2005-10-04 07:37:37 51°23.478 2°54.926 -999 26 14.5 102880 74
2005-10-04 07:37:41 51°23.488 2°54.937 -999 25 14.5 102880 74
2005-10-04 07:37:47 51°23.503 2°54.954 -999 23 14.4 102890 74
2005-10-04 07:37:52 51°23.516 2°54.968 -999 25 14.4 102890 74
2005-10-04 07:37:57 51°23.529 2°54.981 -999 24 14.4 102880 73
2005-10-04 07:38:01 51°23.539 2°54.993 -999 18 14.4 102880 73
2005-10-04 07:38:07 51°23.554 2°55.009 -999 19 14.4 102880 73
2005-10-04 07:38:12 51°23.567 2°55.023 -999 17 14.4 102880 73
2005-10-04 07:38:17 51°23.58 2°55.037 -999 19 14.4 102890 74
2005-10-04 07:38:21 51°23.59 2°55.049 -999 19 14.4 102890 74
2005-10-04 07:38:25 51°23.6 2°55.06 -999 21 14.5 102890 74
2005-10-04 07:38:32 51°23.618 2°55.08 -999 18 14.5 102890 74
2005-10-04 07:38:37 51°23.631 2°55.093 -999 17 14.5 102890 75
2005-10-04 07:38:41 51°23.641 2°55.104 -999 18 14.5 102890 75
2005-10-04 07:38:47 51°23.657 2°55.12 -999 15 14.5 102890 74
2005-10-04 07:38:52 51°23.67 2°55.134 -999 21 14.5 102890 74
2005-10-04 07:38:57 51°23.683 2°55.147 -999 19 14.5 102890 75
2005-10-04 07:39:01 51°23.693 2°55.158 -999 15 14.5 102890 75
2005-10-04 07:39:07 51°23.709 2°55.174 -999 14 14.5 102880 74
2005-10-04 07:39:12 51°23.722 2°55.187 -999 19 14.5 102880 74
2005-10-04 07:39:17 51°23.734 2°55.202 -999 18 14.5 102880 74
2005-10-04 07:39:21 51°23.745 2°55.212 -999 19 14.5 102880 74
2005-10-04 07:39:27 51°23.76 2°55.229 -999 17 14.5 102880 74
2005-10-04 07:39:32 51°23.773 2°55.243 -999 19 14.5 102880 74
2005-10-04 07:39:37 51°23.785 2°55.257 -999 19 14.4 102890 74
2005-10-04 07:39:41 51°23.796 2°55.268 -999 20 14.4 102890 74
2005-10-04 07:39:47 51°23.811 2°55.285 -999 21 14.5 102880 74
2005-10-04 07:39:52 51°23.824 2°55.298 -999 21 14.5 102880 74
2005-10-04 07:39:57 51°23.837 2°55.311 -999 22 14.4 102880 74
2005-10-04 07:40:01 51°23.847 2°55.322 -999 21 14.4 102880 74
2005-10-04 07:40:07 51°23.863 2°55.338 -999 21 14.4 102880 74
2005-10-04 07:40:12 51°23.876 2°55.351 -999 20 14.4 102880 74
2005-10-04 07:40:17 51°23.888 2°55.365 -999 22 14.4 102890 73
2005-10-04 07:40:21 51°23.899 2°55.375 -999 22 14.4 102890 73
2005-10-04 07:40:27 51°23.915 2°55.391 -999 24 14.4 102880 73
2005-10-04 07:40:32 51°23.928 2°55.404 -999 24 14.4 102880 73
2005-10-04 07:40:37 51°23.941 2°55.417 -999 22 14.4 102880 73
2005-10-04 07:40:41 51°23.951 2°55.427 -999 24 14.4 102880 73
2005-10-04 07:40:47 51°23.967 2°55.443 -999 18 14.4 102890 73
2005-10-04 07:40:52 51°23.979 2°55.458 -999 18 14.4 102890 73
2005-10-04 07:40:57 51°23.99 2°55.474 -999 20 14.4 102880 73
2005-10-04 07:41:01 51°23.999 2°55.487 -999 10 14.4 102880 73
2005-10-04 07:41:07 51°24.011 2°55.509 -999 13 14.5 102880 74
2005-10-04 07:41:12 51°24.02 2°55.529 -999 1 14.5 102880 74
2005-10-04 07:41:17 51°24.027 2°55.55 -999 3 14.4 102890 74
2005-10-04 07:41:22 51°24.034 2°55.571 -999 359 14.4 102890 74
2005-10-04 07:41:27 51°24.041 2°55.592 -999 -999 14.4 102880 74
2005-10-04 07:41:31 51°24.046 2°55.61 -999 2 14.4 102880 74
2005-10-04 07:41:37 51°24.055 2°55.636 -999 359 14.5 102890 75
2005-10-04 07:41:42 51°24.062 2°55.657 -999 3 14.5 102890 75
2005-10-04 07:41:47 51°24.068 2°55.679 -999 5 14.5 102880 75
2005-10-04 07:41:52 51°24.075 2°55.701 -999 358 14.5 102880 75
2005-10-04 07:41:57 51°24.082 2°55.722 -999 2 14.5 102870 74
2005-10-04 07:42:01 51°24.088 2°55.74 -999 2 14.5 102870 74
2005-10-04 07:42:07 51°24.096 2°55.766 -999 2 14.4 102870 75
2005-10-04 07:42:12 51°24.104 2°55.788 -999 2 14.4 102870 75
2005-10-04 07:42:17 51°24.11 2°55.81 -999 3 14.5 102880 75
2005-10-04 07:42:21 51°24.116 2°55.827 -999 1 14.5 102880 75
2005-10-04 07:42:27 51°24.124 2°55.854 -999 1 14.5 102870 75
2005-10-04 07:42:32 51°24.131 2°55.876 -999 359 14.5 102870 75
2005-10-04 07:42:37 51°24.138 2°55.897 -999 3 14.5 102880 74
2005-10-04 07:42:41 51°24.143 2°55.915 -999 3 14.5 102880 74
2005-10-04 07:42:47 51°24.152 2°55.941 -999 4 14.5 102870 74
2005-10-04 07:42:52 51°24.159 2°55.962 -999 357 14.5 102870 74
2005-10-04 07:42:57 51°24.167 2°55.984 -999 -999 14.5 102870 73
2005-10-04 07:43:01 51°24.172 2°56.001 -999 2 14.5 102870 73
2005-10-04 07:43:07 51°24.181 2°56.028 -999 3 14.5 102870 73
2005-10-04 07:43:12 51°24.188 2°56.05 -999 4 14.5 102870 73
2005-10-04 07:43:17 51°24.195 2°56.071 -999 5 14.5 102870 73
2005-10-04 07:43:21 51°24.2 2°56.089 -999 3 14.5 102870 73
2005-10-04 07:43:27 51°24.209 2°56.115 -999 6 14.5 102880 74
2005-10-04 07:43:32 51°24.216 2°56.136 -999 7 14.5 102880 74
2005-10-04 07:43:37 51°24.224 2°56.159 -999 7 14.4 102880 73
2005-10-04 07:43:41 51°24.23 2°56.176 -999 9 14.4 102880 73
2005-10-04 07:43:45 51°24.235 2°56.194 -999 4 14.4 102870 72
2005-10-04 07:43:52 51°24.245 2°56.225 -999 2 14.4 102870 72
2005-10-04 07:43:57 51°24.251 2°56.247 -999 2 14.5 102880 73
2005-10-04 07:44:01 51°24.256 2°56.266 -999 2 14.5 102880 73
2005-10-04 07:44:07 51°24.262 2°56.294 -999 357 14.5 102870 73
2005-10-04 07:44:12 51°24.267 2°56.317 -999 356 14.5 102870 73
2005-10-04 07:44:17 51°24.273 2°56.34 -999 358 14.4 102880 72
2005-10-04 07:44:21 51°24.277 2°56.359 -999 357 14.4 102880 72
2005-10-04 07:44:27 51°24.283 2°56.387 -999 359 14.4 102870 71
2005-10-04 07:44:32 51°24.288 2°56.411 -999 3 14.4 102870 71
2005-10-04 07:44:37 51°24.293 2°56.434 -999 3 14.4 102890 72
2005-10-04 07:44:41 51°24.297 2°56.452 -999 3 14.4 102890 72
2005-10-04 07:44:47 51°24.304 2°56.479 -999 4 14.5 102870 72
2005-10-04 07:44:52 51°24.31 2°56.503 -999 4 14.5 102870 72
2005-10-04 07:44:57 51°24.316 2°56.526 -999 360 14.5 102880 72
2005-10-04 07:45:01 51°24.32 2°56.544 -999 5 14.5 102880 72
2005-10-04 07:45:07 51°24.327 2°56.572 -999 9 14.5 102880 72
2005-10-04 07:45:12 51°24.332 2°56.596 -999 5 14.5 102880 72
2005-10-04 07:45:17 51°24.338 2°56.619 -999 4 14.5 102880 72
2005-10-04 07:45:21 51°24.342 2°56.638 -999 4 14.5 102880 72
2005-10-04 07:45:27 51°24.348 2°56.666 -999 7 14.4 102870 72
2005-10-04 07:45:32 51°24.354 2°56.689 -999 7 14.4 102870 72
2005-10-04 07:45:37 51°24.36 2°56.713 -999 6 14.5 102880 72
2005-10-04 07:45:42 51°24.365 2°56.736 -999 4 14.5 102880 72
2005-10-04 07:45:47 51°24.371 2°56.759 -999 6 14.4 102890 72
2005-10-04 07:45:52 51°24.377 2°56.783 -999 4 14.4 102890 72
2005-10-04 07:45:57 51°24.383 2°56.805 -999 4 14.4 102880 72
2005-10-04 07:46:01 51°24.387 2°56.824 -999 357 14.4 102880 72
2005-10-04 07:46:07 51°24.394 2°56.853 -999 2 14.4 102890 72
2005-10-04 07:46:12 51°24.4 2°56.875 -999 6 14.4 102890 72
2005-10-04 07:46:17 51°24.406 2°56.899 -999 359 14.4 102880 72
2005-10-04 07:46:21 51°24.41 2°56.917 -999 360 14.4 102880 72
2005-10-04 07:46:27 51°24.417 2°56.945 -999 6 14.4 102880 73
2005-10-04 07:46:32 51°24.423 2°56.969 -999 359 14.4 102880 73
2005-10-04 07:46:37 51°24.428 2°56.992 -999 4 14.4 102880 73
2005-10-04 07:46:41 51°24.433 2°57.011 -999 1 14.4 102880 73
2005-10-04 07:46:47 51°24.44 2°57.038 -999 359 14.4 102870 73
2005-10-04 07:46:52 51°24.446 2°57.061 -999 354 14.4 102870 73
2005-10-04 07:46:57 51°24.452 2°57.084 -999 357 14.5 102890 74
2005-10-04 07:47:01 51°24.456 2°57.103 -999 359 14.5 102890 74
2005-10-04 07:47:07 51°24.464 2°57.13 -999 359 14.5 102870 74
2005-10-04 07:47:12 51°24.47 2°57.153 -999 2 14.5 102870 74
2005-10-04 07:47:17 51°24.476 2°57.176 -999 -999 14.5 102880 74
2005-10-04 07:47:21 51°24.482 2°57.193 -999 3 14.5 102880 74
2005-10-04 07:47:27 51°24.491 2°57.219 -999 3 14.5 102870 74
2005-10-04 07:47:32 51°24.5 2°57.239 -999 14 14.5 102870 74
2005-10-04 07:47:37 51°24.509 2°57.259 -999 17 14.5 102880 74
2005-10-04 07:47:41 51°24.517 2°57.274 -999 10 14.5 102880 74
2005-10-04 07:47:47 51°24.529 2°57.296 -999 5 14.5 102870 74
2005-10-04 07:47:52 51°24.538 2°57.316 -999 8 14.5 102870 74
2005-10-04 07:47:57 51°24.548 2°57.336 -999 7 14.5 102890 74
2005-10-04 07:48:01 51°24.555 2°57.352 -999 6 14.5 102890 74
2005-10-04 07:48:05 51°24.561 2°57.369 -999 6 14.5 102890 74
2005-10-04 07:48:11 51°24.571 2°57.395 -999 6 14.5 102890 74
2005-10-04 07:48:17 51°24.581 2°57.419 -999 3 14.5 102890 74
2005-10-04 07:48:21 51°24.588 2°57.436 -999 2 14.5 102890 74
2005-10-04 07:48:27 51°24.598 2°57.461 -999 2 14.5 102880 74
2005-10-04 07:48:32 51°24.606 2°57.483 -999 357 14.5 102880 74
2005-10-04 07:48:37 51°24.614 2°57.504 -999 3 14.5 102880 74
2005-10-04 07:48:41 51°24.62 2°57.522 -999 7 14.5 102880 74
2005-10-04 07:48:47 51°24.63 2°57.546 -999 6 14.5 102880 74
2005-10-04 07:48:52 51°24.638 2°57.567 -999 6 14.5 102880 74
2005-10-04 07:48:57 51°24.647 2°57.589 -999 8 14.5 102880 74
2005-10-04 07:49:01 51°24.653 2°57.606 -999 5 14.5 102880 74
2005-10-04 07:49:07 51°24.663 2°57.631 -999 8 14.5 102860 74
2005-10-04 07:49:12 51°24.672 2°57.652 -999 8 14.5 102860 74
2005-10-04 07:49:17 51°24.68 2°57.673 -999 7 14.5 102890 74
2005-10-04 07:49:21 51°24.687 2°57.69 -999 9 14.5 102890 74
2005-10-04 07:49:27 51°24.697 2°57.715 -999 6 14.5 102890 74
2005-10-04 07:49:32 51°24.706 2°57.736 -999 1 14.5 102890 74
2005-10-04 07:49:37 51°24.714 2°57.758 -999 4 14.5 102880 74
2005-10-04 07:49:41 51°24.721 2°57.775 -999 9 14.5 102880 74
2005-10-04 07:49:45 51°24.727 2°57.792 -999 7 14.5 102880 73
2005-10-04 07:49:52 51°24.739 2°57.822 -999 6 14.5 102880 73
2005-10-04 07:49:57 51°24.747 2°57.843 -999 9 14.5 102890 73
2005-10-04 07:50:01 51°24.754 2°57.861 -999 5 14.5 102890 73
2005-10-04 07:50:07 51°24.764 2°57.886 -999 3 14.5 102880 73
2005-10-04 07:50:12 51°24.772 2°57.908 -999 7 14.5 102880 73
2005-10-04 07:50:17 51°24.781 2°57.928 -999 9 14.5 102880 72
2005-10-04 07:50:21 51°24.788 2°57.944 -999 12 14.5 102880 72
2005-10-04 07:50:27 51°24.8 2°57.968 -999 13 14.5 102890 73
2005-10-04 07:50:32 51°24.81 2°57.987 -999 13 14.5 102890 73
2005-10-04 07:50:37 51°24.821 2°58.006 -999 14 14.5 102880 73
2005-10-04 07:50:41 51°24.829 2°58.021 -999 12 14.5 102880 73
2005-10-04 07:50:47 51°24.842 2°58.041 -999 15 14.5 102880 73
2005-10-04 07:50:52 51°24.854 2°58.057 -999 20 14.5 102880 73
2005-10-04 07:50:57 51°24.866 2°58.072 -999 21 14.5 102880 73
2005-10-04 07:51:01 51°24.877 2°58.083 -999 23 14.5 102880 73
2005-10-04 07:51:07 51°24.891 2°58.1 -999 21 14.5 102890 73
2005-10-04 07:51:12 51°24.904 2°58.114 -999 24 14.5 102890 73
2005-10-04 07:51:17 51°24.917 2°58.127 -999 22 14.5 102880 74
2005-10-04 07:51:21 51°24.928 2°58.137 -999 21 14.5 102880 74
2005-10-04 07:51:27 51°24.943 2°58.154 -999 18 14.5 102880 74
2005-10-04 07:51:32 51°24.956 2°58.168 -999 19 14.5 102880 74
2005-10-04 07:51:37 51°24.969 2°58.183 -999 16 14.5 102870 74
2005-10-04 07:51:41 51°24.979 2°58.195 -999 14 14.5 102870 74
2005-10-04 07:51:47 51°24.994 2°58.212 -999 19 14.5 102880 74
2005-10-04 07:51:52 51°25.006 2°58.227 -999 21 14.5 102880 74
2005-10-04 07:51:57 51°25.019 2°58.24 -999 20 14.5 102890 74
2005-10-04 07:52:01 51°25.03 2°58.251 -999 20 14.5 102890 74
2005-10-04 07:52:07 51°25.045 2°58.268 -999 20 14.5 102880 74
2005-10-04 07:52:12 51°25.058 2°58.283 -999 19 14.5 102880 74
2005-10-04 07:52:17 51°25.071 2°58.297 -999 19 14.5 102880 74
2005-10-04 07:52:21 51°25.081 2°58.309 -999 20 14.5 102880 74
2005-10-04 07:52:27 51°25.096 2°58.327 -999 19 14.5 102890 74
2005-10-04 07:52:32 51°25.109 2°58.342 -999 18 14.5 102890 74
2005-10-04 07:52:37 51°25.121 2°58.357 -999 17 14.5 102890 74
2005-10-04 07:52:41 51°25.131 2°58.368 -999 20 14.5 102890 74
2005-10-04 07:52:47 51°25.146 2°58.385 -999 19 14.5 102880 74
2005-10-04 07:52:52 51°25.159 2°58.399 -999 12 14.5 102880 74
2005-10-04 07:52:57 51°25.172 2°58.414 -999 16 14.5 102900 74
2005-10-04 07:53:01 51°25.182 2°58.425 -999 18 14.5 102900 74
2005-10-04 07:53:07 51°25.197 2°58.443 -999 19 14.5 102890 74
2005-10-04 07:53:11 51°25.207 2°58.454 -999 19 14.5 102890 74
2005-10-04 07:53:17 51°25.222 2°58.471 -999 20 14.5 102880 75
2005-10-04 07:53:21 51°25.232 2°58.482 -999 17 14.5 102880 75
2005-10-04 07:53:27 51°25.247 2°58.499 -999 19 14.6 102890 75
2005-10-04 07:53:32 51°25.26 2°58.513 -999 13 14.6 102890 75
2005-10-04 07:53:37 51°25.273 2°58.527 -999 12 14.5 102880 75
2005-10-04 07:53:41 51°25.284 2°58.539 -999 12 14.5 102880 75
2005-10-04 07:53:47 51°25.299 2°58.556 -999 15 14.6 102890 75
2005-10-04 07:53:52 51°25.311 2°58.57 -999 12 14.6 102890 75
2005-10-04 07:53:57 51°25.324 2°58.584 -999 12 14.6 102900 75
2005-10-04 07:54:01 51°25.334 2°58.595 -999 17 14.6 102900 75
2005-10-04 07:54:07 51°25.349 2°58.611 -999 17 14.6 102890 76
2005-10-04 07:54:12 51°25.362 2°58.625 -999 15 14.6 102890 76
2005-10-04 07:54:17 51°25.375 2°58.639 -999 18 14.5 102890 75
2005-10-04 07:54:21 51°25.385 2°58.649 -999 13 14.5 102890 75
2005-10-04 07:54:27 51°25.401 2°58.666 -999 14 14.6 102890 76
2005-10-04 07:54:32 51°25.413 2°58.68 -999 14 14.6 102890 76
2005-10-04 07:54:37 51°25.426 2°58.694 -999 15 14.6 102880 76
2005-10-04 07:54:41 51°25.436 2°58.706 -999 15 14.6 102880 76
2005-10-04 07:54:47 51°25.451 2°58.723 -999 13 14.6 102890 76
2005-10-04 07:54:52 51°25.464 2°58.737 -999 12 14.6 102890 76
2005-10-04 07:54:57 51°25.476 2°58.751 -999 14 14.5 102890 75
2005-10-04 07:55:01 51°25.486 2°58.762 -999 13 14.5 102890 75
2005-10-04 07:55:07 51°25.501 2°58.779 -999 16 14.5 102890 75
2005-10-04 07:55:12 51°25.514 2°58.793 -999 15 14.5 102890 75
2005-10-04 07:55:17 51°25.526 2°58.806 -999 15 14.5 102890 75
2005-10-04 07:55:21 51°25.536 2°58.818 -999 14 14.5 102890 75
2005-10-04 07:55:27 51°25.551 2°58.834 -999 15 14.5 102890 74
2005-10-04 07:55:32 51°25.564 2°58.848 -999 16 14.5 102890 74
2005-10-04 07:55:37 51°25.576 2°58.862 -999 17 14.5 102900 74
2005-10-04 07:55:42 51°25.588 2°58.875 -999 15 14.5 102900 74
2005-10-04 07:55:47 51°25.601 2°58.889 -999 21 14.5 102880 74
2005-10-04 07:55:52 51°25.613 2°58.902 -999 16 14.5 102880 74
2005-10-04 07:55:57 51°25.626 2°58.916 -999 17 14.5 102890 74
2005-10-04 07:56:01 51°25.636 2°58.926 -999 19 14.5 102890 74
2005-10-04 07:56:07 51°25.65 2°58.943 -999 18 14.5 102890 74
2005-10-04 07:56:12 51°25.663 2°58.958 -999 14 14.5 102890 74
2005-10-04 07:56:17 51°25.675 2°58.972 -999 17 14.5 102890 74
2005-10-04 07:56:22 51°25.687 2°58.986 -999 16 14.5 102890 74
2005-10-04 07:56:27 51°25.7 2°59.001 -999 16 14.5 102880 75
2005-10-04 07:56:32 51°25.712 2°59.015 -999 14 14.5 102880 75
2005-10-04 07:56:37 51°25.724 2°59.029 -999 17 14.5 102890 75
2005-10-04 07:56:41 51°25.734 2°59.041 -999 13 14.5 102890 75
2005-10-04 07:56:47 51°25.748 2°59.058 -999 17 14.5 102900 75
2005-10-04 07:56:52 51°25.761 2°59.072 -999 16 14.5 102900 75
2005-10-04 07:56:57 51°25.773 2°59.086 -999 15 14.6 102890 76
2005-10-04 07:57:01 51°25.783 2°59.097 -999 15 14.6 102890 76
2005-10-04 07:57:07 51°25.798 2°59.114 -999 16 14.5 102900 76
2005-10-04 07:57:12 51°25.811 2°59.128 -999 16 14.5 102900 76
2005-10-04 07:57:17 51°25.823 2°59.142 -999 15 14.5 102880 76
2005-10-04 07:57:21 51°25.833 2°59.154 -999 15 14.5 102880 76
2005-10-04 07:57:27 51°25.847 2°59.172 -999 14 14.5 102890 75
2005-10-04 07:57:32 51°25.859 2°59.186 -999 14 14.5 102890 75
2005-10-04 07:57:37 51°25.871 2°59.2 -999 13 14.6 102890 75
2005-10-04 07:57:41 51°25.881 2°59.212 -999 17 14.6 102890 75
2005-10-04 07:57:47 51°25.896 2°59.228 -999 17 14.5 102880 75
2005-10-04 07:57:52 51°25.909 2°59.242 -999 15 14.5 102880 75
2005-10-04 07:57:57 51°25.921 2°59.256 -999 15 14.5 102890 74
2005-10-04 07:58:01 51°25.931 2°59.267 -999 16 14.5 102890 74
2005-10-04 07:58:07 51°25.946 2°59.283 -999 17 14.5 102880 74
2005-10-04 07:58:12 51°25.959 2°59.297 -999 18 14.5 102880 74
2005-10-04 07:58:17 51°25.972 2°59.311 -999 17 14.5 102890 74
2005-10-04 07:58:21 51°25.982 2°59.322 -999 17 14.5 102890 74
2005-10-04 07:58:27 51°25.996 2°59.34 -999 17 14.5 102900 74
2005-10-04 07:58:32 51°26.008 2°59.353 -999 18 14.5 102900 74
2005-10-04 07:58:37 51°26.021 2°59.368 -999 19 14.5 102900 73
2005-10-04 07:58:42 51°26.033 2°59.382 -999 19 14.5 102900 73
2005-10-04 07:58:47 51°26.045 2°59.395 -999 19 14.5 102890 73
2005-10-04 07:58:52 51°26.058 2°59.409 -999 19 14.5 102890 73
2005-10-04 07:58:57 51°26.071 2°59.423 -999 22 14.5 102890 73
2005-10-04 07:59:01 51°26.081 2°59.433 -999 22 14.5 102890 73
2005-10-04 07:59:07 51°26.097 2°59.449 -999 22 14.5 102890 74